Retour au catalogue

COSMOS 654

ActifMilitaireLEO
NORAD 7297·PAYLOAD·🇷🇺 Russia

Lancé May 17, 1974 depuis Baikonur Cosmodrome

Loading…

Prochains Passages (prochaines 24 heures)

TLE

FraisSource: Space-Track

Époque: Sep 14, 2026, 21:45 UTC

1 07297U 74032A   26257.90646679 -.00000087  00000-0  13648-5 0  9993
2 07297  64.9480  62.3075 0075204 302.5420 220.2431 13.79618176637352

Suivez COSMOS 654 en temps réel avec AllMySat

Download on the App Store